Find Starlink 33816

NORAD ID: 63677 Int'l Des: 2025-085 Owner: SPXS Country: US Constellation: starlink operational
LEOCIRCULAR

現在のビュー

3D地球を読み込み中...

About Starlink 33816

Starlink 33816 (NORAD 63677) is a starlink constellation satellite (v2 mini) launched Apr 28, 2025 by SPXS of US. It operates in LEO, CIRCULAR orbit with a mass of 575.00 kg.

次回通過

Passes for default location (London). Set your location on the main map for personalized predictions.

高度履歴

Loading altitude history...

軌道要素

1 63677U 25085P 26222.05625954 .00006571 00000-0 24806-3 0 9991
2 63677 43.0000 244.9327 0001239 305.0823 54.9912 15.27582595 72429
Epoch: Aug 10, 2026 • Age: 9 hours

現在のステータス

高度 487.5 km
遠地点 / 近地点 N/A
速度 7.62 km/s
衛星直下点 -22.61°S, 98.2°E
打ち上げ日 Apr 28, 2025
運用期間 1.2 years
タイプ internet

技術仕様

分類 Payload
質量 575.00 kg
乾燥質量 530.00 kg
総質量 575.00 kg
長さ 0.30 m
直径 4.10 m
スパン 29.00 m
形状 Box + pan
製造者 SPXS
バスタイプ Starlink V2MO
フェーズステータス In Orbit
所有者/国 SPXS/US

Most Searched